User: anonymous   Login
Location: Unspecified
(0.0000°N, 0.0000°E)
Time: 06:54:02
(UTC+00:00)
Language:

STARLINK-33534 - Orbit

View from above orbital plane
View from above orbital plane
View from above satellite
View from above satellite

Ground track
Ground track

The orbit is defined by the following mean orbital elements,

1 63499U          26145.37383115 +.00000000 +00000-0 +43559-3 0 00002
2 63499  53.1588 143.5187 0001156  85.4505 274.6629 15.31709668    04
Epoch (UTC): 25 May 2026 08:58:19
Eccentricity: 0.0001156
inclination: 53.1588°
perigee height: 470 km
apogee height: 472 km
right ascension of ascending node: 143.5187°
argument of perigee: 85.4505°
revolutions per day: 15.31709668
mean anomaly at epoch: 274.6629°

The dashed part of the orbit path shows where the satellite is in the earth's shadow,  

DLR